Find Starlink 6077

NORAD ID: 56097 Int'l Des: 2023-046 Owner: SPXS Country: US Constellation: starlink operational
LEOCIRCULAR

Live Position

Loading 3D Globe...

About Starlink 6077

Description loading...

Upcoming Passes

Passes for default location (London). Set your location on the main map for personalized predictions.

Altitude History

Loading altitude history...

Two-Line Element Set

1 56097U 23046E 26104.17975764 -.00000400 00000-0 -10490-4 0 9995
2 56097 43.0011 272.1035 0001171 268.7041 91.3671 15.11072271168027
Epoch: Apr 14, 2026 • Age: 5 hours

Current Status

Altitude 535.2 km
Velocity 7.60 km/s
Sub-Earth Point 35.43°N, 54.79°E
Launch Date Mar 29, 2023
Age 3 years
Type internet

Technical Details

Classification Payload
Mass 305.00 kg
Dry Mass 290.00 kg
Total Mass 305.00 kg
Length 0.20 m
Diameter 2.80 m
Span 9.00 m
Shape Box + pan
Manufacturer SPXS
Bus Type Starlink
Phase Status In Orbit
Owner/State SPXS/US

Most Searched